• En España
  • Lista de países
  • Para 7 días
  • Temperatura del agua
  • Mapa Satelital
  • El tiempo en el mapa
  • Informadores
  • user-avatar
    Iniciar sesión

    Tiempo cada hora Dobrcz

    Hoy, 24 Noviembre, Viernes

    Tiempo Temperatura Precipitaciones Viento Presión Humedad
    00:00 +5°C° 0 mm 4 mps 750 mmHg 81%
    01:00 +5°C° 0 mm 3 mps 750 mmHg 87%
    02:00 +5°C° 0 mm 3 mps 750 mmHg 88%
    03:00 +5°C° 0 mm 3 mps 750 mmHg 90%
    04:00 +4°C° 0 mm 3 mps 750 mmHg 91%
    05:00 +4°C° 0 mm 3 mps 750 mmHg 92%
    06:00 +4°C° 0 mm 3 mps 751 mmHg 92%
    07:00 +4°C° 0 mm 3 mps 750 mmHg 93%
    08:00 +5°C° 0 mm 3 mps 750 mmHg 91%
    09:00 +7°C° 0 mm 3 mps 750 mmHg 89%
    10:00 +7°C° 0 mm 3 mps 750 mmHg 87%
    11:00 +7°C° 0 mm 4 mps 750 mmHg 83%
    12:00 +8°C° 0 mm 5 mps 749 mmHg 79%
    13:00 +9°C° 0 mm 5 mps 749 mmHg 74%
    14:00 +9°C° 0 mm 5 mps 749 mmHg 76%
    15:00 +8°C° 0 mm 5 mps 748 mmHg 78%
    16:00 +8°C° 0 mm 5 mps 748 mmHg 79%
    17:00 +8°C° 0,1 mm 5 mps 748 mmHg 80%
    18:00 +8°C° 0,1 mm 5 mps 748 mmHg 80%
    19:00 +8°C° 0,1 mm 5 mps 749 mmHg 81%
    20:00 +8°C° 0,2 mm 5 mps 749 mmHg 83%
    21:00 +8°C° 0,2 mm 4 mps 749 mmHg 85%
    22:00 +8°C° 0,2 mm 4 mps 750 mmHg 87%
    23:00 +8°C° 0 mm 3 mps 750 mmHg 89%

    Mañana, 25 Noviembre, Sábado

    Tiempo Temperatura Precipitaciones Viento Presión Humedad
    00:00 +7°C° 0 mm 3 mps 750 mmHg 90%
    01:00 +7°C° 0 mm 2 mps 751 mmHg 91%
    02:00 +7°C° 0 mm 1 mps 751 mmHg 91%
    03:00 +7°C° 0 mm 1 mps 751 mmHg 92%
    04:00 +6°C° 0 mm 1 mps 751 mmHg 92%
    05:00 +6°C° 0,3 mm 1 mps 750 mmHg 92%
    06:00 +6°C° 0,3 mm 1 mps 750 mmHg 92%
    07:00 +6°C° 0,3 mm 1 mps 750 mmHg 92%
    08:00 +5°C° 0,7 mm 2 mps 749 mmHg 92%
    09:00 +6°C° 0,7 mm 2 mps 748 mmHg 92%
    10:00 +5°C° 0,7 mm 3 mps 748 mmHg 92%
    11:00 +5°C° 0,5 mm 3 mps 747 mmHg 89%
    12:00 +6°C° 0,5 mm 4 mps 746 mmHg 86%
    13:00 +7°C° 0,5 mm 4 mps 745 mmHg 83%
    14:00 +7°C° 0,2 mm 4 mps 745 mmHg 82%
    15:00 +7°C° 0,2 mm 4 mps 744 mmHg 82%
    16:00 +7°C° 0,2 mm 4 mps 744 mmHg 81%
    17:00 +7°C° 0,4 mm 4 mps 744 mmHg 83%
    18:00 +6°C° 0,4 mm 5 mps 744 mmHg 85%
    19:00 +6°C° 0,4 mm 5 mps 744 mmHg 87%
    20:00 +6°C° 0,1 mm 5 mps 745 mmHg 86%
    21:00 +5°C° 0,1 mm 5 mps 745 mmHg 84%
    22:00 +4°C° 0,1 mm 6 mps 746 mmHg 82%
    23:00 +3°C° 0 mm 5 mps 747 mmHg 80%

    Pasado mañana, 26 Noviembre, Domingo

    Tiempo Temperatura Precipitaciones Viento Presión Humedad
    00:00 +3°C° 0 mm 5 mps 748 mmHg 79%
    01:00 +3°C° 0 mm 4 mps 749 mmHg 78%
    02:00 +3°C° 0 mm 4 mps 750 mmHg 81%
    03:00 +1°C° 0 mm 4 mps 750 mmHg 83%
    04:00 +2°C° 0 mm 3 mps 751 mmHg 86%
    05:00 0°C° 0 mm 4 mps 751 mmHg 88%
    06:00 0°C° 0 mm 4 mps 752 mmHg 90%
    07:00 0°C° 0 mm 4 mps 752 mmHg 92%
    08:00 0°C° 0 mm 4 mps 753 mmHg 89%
    09:00 +1°C° 0 mm 4 mps 753 mmHg 86%
    10:00 +1°C° 0 mm 5 mps 754 mmHg 83%
    11:00 +2°C° 0 mm 5 mps 754 mmHg 79%
    12:00 +2°C° 0 mm 5 mps 754 mmHg 75%
    13:00 +3°C° 0 mm 5 mps 754 mmHg 70%
    14:00 +3°C° 0 mm 4 mps 754 mmHg 73%
    15:00 +1°C° 0 mm 4 mps 754 mmHg 77%
    16:00 +1°C° 0 mm 4 mps 755 mmHg 80%
    17:00 0°C° 0 mm 4 mps 755 mmHg 81%
    18:00 0°C° 0 mm 4 mps 755 mmHg 83%
    19:00 0°C° 0 mm 4 mps 755 mmHg 84%
    20:00 0°C° 0 mm 4 mps 755 mmHg 85%
    21:00 0°C° 0 mm 4 mps 755 mmHg 86%
    22:00 -1°C° 0 mm 4 mps 756 mmHg 87%
    23:00 -1°C° 0 mm 4 mps 755 mmHg 87%

    27 Noviembre, Lunes

    Tiempo Temperatura Precipitaciones Viento Presión Humedad
    00:00 -1°C° 0 mm 5 mps 755 mmHg 87%
    01:00 -1°C° 0 mm 5 mps 755 mmHg 88%
    02:00 -1°C° 0 mm 5 mps 755 mmHg 87%
    03:00 -1°C° 0 mm 5 mps 755 mmHg 86%
    04:00 0°C° 0 mm 5 mps 755 mmHg 85%
    05:00 0°C° 0 mm 5 mps 755 mmHg 85%
    06:00 0°C° 0 mm 5 mps 755 mmHg 85%
    07:00 0°C° 0 mm 5 mps 755 mmHg 85%
    08:00 +1°C° 0 mm 5 mps 756 mmHg 85%
    09:00 +1°C° 0 mm 5 mps 756 mmHg 84%
    10:00 +1°C° 0 mm 5 mps 756 mmHg 83%
    11:00 +1°C° 0 mm 5 mps 756 mmHg 82%
    12:00 +2°C° 0 mm 5 mps 756 mmHg 81%
    13:00 +2°C° 0 mm 5 mps 756 mmHg 80%
    14:00 +2°C° 0 mm 5 mps 756 mmHg 81%
    15:00 +3°C° 0 mm 4 mps 756 mmHg 81%
    16:00 +1°C° 0 mm 4 mps 756 mmHg 81%
    17:00 +1°C° 0 mm 4 mps 756 mmHg 81%
    18:00 +1°C° 0 mm 4 mps 756 mmHg 81%
    19:00 +1°C° 0 mm 4 mps 756 mmHg 82%
    20:00 +1°C° 0 mm 4 mps 756 mmHg 83%
    21:00 0°C° 0 mm 4 mps 756 mmHg 84%
    22:00 0°C° 0 mm 4 mps 755 mmHg 85%
    23:00 0°C° 0 mm 5 mps 755 mmHg 85%

    28 Noviembre, Martes

    Tiempo Temperatura Precipitaciones Viento Presión Humedad
    00:00 0°C° 0 mm 5 mps 754 mmHg 86%
    01:00 -1°C° 0 mm 5 mps 754 mmHg 87%
    02:00 -2°C° 0 mm 6 mps 753 mmHg 85%
    03:00 -2°C° 0 mm 6 mps 753 mmHg 84%
    04:00 -2°C° 0 mm 6 mps 752 mmHg 82%
    05:00 -2°C° 0 mm 6 mps 752 mmHg 82%
    06:00 -2°C° 0 mm 6 mps 752 mmHg 81%
    07:00 -2°C° 0 mm 6 mps 752 mmHg 81%
    08:00 -1°C° 0,1 mm 6 mps 751 mmHg 80%
    09:00 -1°C° 0,1 mm 6 mps 751 mmHg 79%
    10:00 -1°C° 0,1 mm 6 mps 751 mmHg 78%
    11:00 0°C° 0,2 mm 5 mps 751 mmHg 78%
    12:00 +1°C° 0,2 mm 5 mps 750 mmHg 78%
    13:00 +1°C° 0,2 mm 5 mps 750 mmHg 77%
    14:00 +1°C° 0,2 mm 5 mps 750 mmHg 78%
    15:00 +1°C° 0,2 mm 4 mps 749 mmHg 79%
    16:00 0°C° 0,2 mm 4 mps 749 mmHg 79%
    17:00 0°C° 0 mm 4 mps 749 mmHg 78%
    18:00 0°C° 0 mm 4 mps 749 mmHg 77%
    19:00 0°C° 0 mm 4 mps 748 mmHg 77%
    20:00 0°C° 0 mm 4 mps 748 mmHg 76%
    21:00 0°C° 0 mm 4 mps 748 mmHg 76%
    22:00 0°C° 0 mm 4 mps 748 mmHg 76%
    23:00 0°C° 0 mm 4 mps 747 mmHg 76%

    29 Noviembre, Miércoles

    Tiempo Temperatura Precipitaciones Viento Presión Humedad
    00:00 0°C° 0 mm 4 mps 747 mmHg 76%
    01:00 -1°C° 0 mm 4 mps 747 mmHg 76%
    02:00 -1°C° 0 mm 4 mps 746 mmHg 76%
    03:00 -1°C° 0 mm 4 mps 746 mmHg 75%
    04:00 -1°C° 0 mm 4 mps 746 mmHg 75%
    05:00 -1°C° 0 mm 4 mps 745 mmHg 75%
    06:00 -1°C° 0 mm 4 mps 745 mmHg 74%
    07:00 -1°C° 0 mm 4 mps 745 mmHg 74%
    08:00 -1°C° 0,1 mm 4 mps 745 mmHg 73%
    09:00 0°C° 0,1 mm 4 mps 745 mmHg 72%
    10:00 0°C° 0,1 mm 4 mps 745 mmHg 71%
    11:00 0°C° 0,1 mm 4 mps 744 mmHg 70%
    12:00 +1°C° 0,1 mm 4 mps 744 mmHg 69%
    13:00 +1°C° 0,1 mm 4 mps 744 mmHg 68%
    14:00 +1°C° 0 mm 4 mps 744 mmHg 70%
    15:00 +1°C° 0 mm 4 mps 743 mmHg 71%
    16:00 0°C° 0 mm 4 mps 743 mmHg 73%
    17:00 +1°C° 0 mm 4 mps 743 mmHg 75%
    18:00 +1°C° 0 mm 4 mps 743 mmHg 77%
    19:00 +1°C° 0 mm 5 mps 743 mmHg 79%
    20:00 +1°C° 0 mm 5 mps 743 mmHg 82%
    21:00 0°C° 0 mm 5 mps 743 mmHg 84%
    22:00 0°C° 0 mm 5 mps 744 mmHg 86%
    23:00 0°C° 0 mm 5 mps 744 mmHg 87%
    Mostrar más